QPF
0.07 0.07 0.08 0.08 0.06 0.04 0.04 0.06 0.04 0.04 0.04 0.03 0.02 0.02 0.02 0.02 0.02 0.03 0.02 0.01 0.00 0.01 0.01 0.01 0.01 0.01 0.01 0.01 0.02 0.02 0.02 0.02 0.02 0.02 0.02 0.02 0.02 0.02 0.02 0.01 0.01 0.01 0.02
0.05 0.05 0.05 0.07 0.07 0.05 0.04 0.04 0.03 0.04 0.04 0.03 0.02 0.01 0.02 0.01 0.02 0.03 0.05 0.02 0.00 0.01 0.01 0.01 0.01 0.02 0.02 0.02 0.02 0.01 0.02 0.03 0.03 0.02 0.02 0.02 0.02 0.02 0.03 0.02 0.01 0.01 0.01
0.05 0.05 0.05 0.05 0.05 0.04 0.03 0.03 0.02 0.03 0.04 0.05 0.03 0.02 0.01 0.01 0.02 0.03 0.05 0.05 0.03 0.02 0.01 0.02 0.02 0.02 0.01 0.02 0.02 0.02 0.02 0.03 0.03 0.02 0.02 0.02 0.02 0.02 0.02 0.02 0.01 0.01 0.01
0.04 0.05 0.04 0.04 0.03 0.02 0.02 0.03 0.02 0.02 0.04 0.05 0.04 0.03 0.02 0.02 0.01 0.01 0.03 0.04 0.05 0.05 0.04 0.02 0.02 0.02 0.02 0.01 0.03 0.04 0.04 0.03 0.02 0.02 0.02 0.02 0.02 0.02 0.02 0.02 0.01 0.01 0.01
0.03 0.03 0.05 0.04 0.02 0.03 0.02 0.03 0.03 0.03 0.06 0.06 0.03 0.04 0.02 0.03 0.02 0.01 0.02 0.02 0.04 0.06 0.07 0.05 0.02 0.02 0.03 0.03 0.03 0.05 0.05 0.04 0.03 0.02 0.02 0.02 0.02 0.02 0.02 0.02 0.01 0.01 0.02
0.03 0.05 0.05 0.04 0.03 0.04 0.04 0.05 0.06 0.06 0.05 0.05 0.03 0.06 0.04 0.03 0.02 0.01 0.02 0.03 0.04 0.04 0.06 0.07 0.06 0.04 0.03 0.03 0.05 0.05 0.05 0.04 0.04 0.03 0.03 0.04 0.04 0.03 0.02 0.02 0.01 0.01 0.02
0.06 0.06 0.07 0.08 0.05 0.06 0.04 0.03 0.05 0.07 0.06 0.04 0.06 0.07 0.05 0.03 0.03 0.02 0.02 0.04 0.04 0.02 0.04 0.07 0.08 0.09 0.10 0.06 0.03 0.05 0.06 0.06 0.06 0.05 0.04 0.04 0.04 0.03 0.03 0.02 0.02 0.02 0.02
0.10 0.09 0.06 0.07 0.06 0.07 0.07 0.06 0.07 0.09 0.09 0.07 0.07 0.13 0.14 0.16 0.10 0.04 0.09 0.08 0.05 0.04 0.04 0.07 0.10 0.13 0.13 0.13 0.07 0.05 0.07 0.09 0.08 0.07 0.06 0.06 0.06 0.05 0.05 0.04 0.04 0.03 0.03
0.06 0.07 0.06 0.06 0.07 0.06 0.09 0.08 0.07 0.08 0.09 0.08 0.05 0.10 0.16 0.21 0.16 0.10 0.10 0.08 0.06 0.08 0.09 0.12 0.11 0.17 0.19 0.18 0.15 0.07 0.05 0.06 0.08 0.09 0.10 0.09 0.08 0.07 0.06 0.07 0.07 0.07 0.06
0.04 0.05 0.06 0.08 0.08 0.09 0.11 0.07 0.07 0.08 0.10 0.08 0.06 0.05 0.07 0.13 0.16 0.18 0.14 0.10 0.09 0.11 0.12 0.13 0.10 0.12 0.16 0.19 0.20 0.10 0.06 0.05 0.06 0.09 0.12 0.11 0.09 0.07 0.06 0.08 0.09 0.09 0.08
0.06 0.04 0.06 0.09 0.09 0.09 0.10 0.09 0.14 0.10 0.08 0.07 0.07 0.07 0.08 0.09 0.08 0.14 0.19 0.16 0.13 0.12 0.12 0.10 0.09 0.10 0.12 0.13 0.13 0.08 0.05 0.04 0.04 0.05 0.07 0.08 0.07 0.08 0.09 0.11 0.12 0.12 0.12
0.09 0.08 0.08 0.10 0.10 0.10 0.10 0.10 0.10 0.09 0.08 0.10 0.10 0.08 0.10 0.09 0.07 0.11 0.13 0.13 0.12 0.11 0.14 0.15 0.10 0.10 0.10 0.08 0.07 0.08 0.08 0.06 0.04 0.03 0.02 0.03 0.04 0.05 0.06 0.08 0.10 0.13 0.13
0.09 0.10 0.11 0.12 0.10 0.12 0.11 0.12 0.13 0.12 0.14 0.14 0.11 0.11 0.10 0.09 0.08 0.09 0.12 0.12 0.11 0.11 0.11 0.09 0.07 0.08 0.08 0.08 0.11 0.13 0.12 0.08 0.04 0.02 0.02 0.02 0.03 0.04 0.05 0.05 0.07 0.08 0.10
0.10 0.11 0.11 0.10 0.09 0.10 0.11 0.14 0.14 0.14 0.15 0.15 0.10 0.13 0.12 0.08 0.08 0.10 0.13 0.15 0.14 0.13 0.10 0.07 0.06 0.06 0.07 0.09 0.11 0.11 0.11 0.09 0.06 0.04 0.03 0.02 0.03 0.03 0.03 0.03 0.03 0.04 0.04
0.11 0.11 0.08 0.07 0.08 0.08 0.10 0.13 0.13 0.12 0.15 0.13 0.10 0.13 0.11 0.08 0.08 0.08 0.11 0.13 0.16 0.16 0.14 0.12 0.09 0.08 0.09 0.08 0.11 0.09 0.09 0.07 0.06 0.05 0.04 0.04 0.04 0.04 0.03 0.03 0.03 0.02 0.02
0.10 0.09 0.07 0.07 0.08 0.07 0.08 0.11 0.11 0.10 0.11 0.11 0.10 0.11 0.10 0.08 0.09 0.09 0.10 0.11 0.13 0.14 0.15 0.14 0.12 0.09 0.09 0.09 0.10 0.09 0.09 0.08 0.05 0.04 0.03 0.03 0.03 0.03 0.04 0.03 0.03 0.02 0.02
0.09 0.09 0.08 0.07 0.06 0.08 0.07 0.09 0.10 0.10 0.10 0.11 0.10 0.11 0.12 0.11 0.11 0.11 0.11 0.11 0.12 0.14 0.15 0.16 0.15 0.12 0.12 0.13 0.12 0.11 0.10 0.08 0.07 0.06 0.05 0.05 0.05 0.05 0.04 0.04 0.03 0.03 0.03
0.07 0.08 0.08 0.07 0.06 0.08 0.09 0.09 0.10 0.11 0.09 0.09 0.09 0.10 0.09 0.11 0.12 0.11 0.12 0.13 0.14 0.17 0.17 0.17 0.13 0.11 0.12 0.12 0.13 0.12 0.11 0.10 0.07 0.06 0.05 0.04 0.04 0.04 0.04 0.03 0.03 0.02 0.02
0.06 0.06 0.07 0.06 0.06 0.07 0.10 0.09 0.08 0.08 0.07 0.08 0.09 0.09 0.09 0.10 0.09 0.10 0.10 0.10 0.11 0.13 0.15 0.12 0.11 0.10 0.11 0.11 0.12 0.12 0.13 0.13 0.08 0.07 0.07 0.07 0.05 0.04 0.03 0.03 0.02 0.02 0.02
0.05 0.06 0.07 0.07 0.08 0.07 0.07 0.07 0.07 0.07 0.07 0.07 0.07 0.07 0.08 0.10 0.09 0.10 0.09 0.10 0.09 0.11 0.14 0.13 0.13 0.12 0.12 0.12 0.11 0.11 0.12 0.12 0.09 0.06 0.05 0.04 0.03 0.03 0.03 0.03 0.02 0.02 0.02
0.04 0.06 0.07 0.06 0.06 0.06 0.05 0.06 0.07 0.06 0.06 0.07 0.08 0.08 0.08 0.09 0.10 0.11 0.09 0.10 0.09 0.10 0.11 0.11 0.12 0.12 0.11 0.09 0.09 0.09 0.09 0.08 0.05 0.03 0.02 0.02 0.01 0.01 0.02 0.03 0.03 0.02 0.02
0.03 0.05 0.04 0.03 0.04 0.03 0.05 0.06 0.06 0.06 0.08 0.08 0.09 0.09 0.09 0.09 0.09 0.10 0.08 0.07 0.07 0.08 0.10 0.10 0.11 0.11 0.10 0.08 0.07 0.07 0.08 0.08 0.05 0.02 0.02 0.02 0.02 0.03 0.04 0.03 0.03 0.02 0.02
0.04 0.05 0.05 0.05 0.04 0.06 0.05 0.04 0.05 0.07 0.08 0.07 0.08 0.09 0.09 0.08 0.08 0.07 0.06 0.06 0.05 0.05 0.08 0.10 0.12 0.13 0.13 0.11 0.11 0.11 0.11 0.10 0.07 0.06 0.06 0.07 0.07 0.06 0.05 0.05 0.04 0.03 0.02
0.05 0.05 0.04 0.05 0.06 0.05 0.03 0.03 0.03 0.04 0.05 0.05 0.05 0.06 0.06 0.06 0.05 0.05 0.05 0.04 0.04 0.05 0.06 0.08 0.11 0.14 0.17 0.18 0.18 0.16 0.15 0.13 0.12 0.10 0.09 0.10 0.08 0.06 0.05 0.04 0.04 0.03 0.02
0.05 0.04 0.04 0.04 0.05 0.04 0.04 0.04 0.04 0.03 0.03 0.03 0.03 0.04 0.05 0.05 0.06 0.04 0.05 0.05 0.04 0.04 0.04 0.06 0.07 0.08 0.09 0.10 0.10 0.11 0.11 0.11 0.10 0.10 0.09 0.07 0.06 0.05 0.04 0.03 0.02 0.02 0.01
0.05 0.04 0.04 0.04 0.05 0.05 0.05 0.05 0.05 0.04 0.03 0.03 0.03 0.03 0.03 0.03 0.03 0.02 0.02 0.03 0.03 0.03 0.04 0.04 0.05 0.06 0.06 0.06 0.06 0.06 0.06 0.07 0.07 0.06 0.05 0.04 0.04 0.04 0.04 0.03 0.02 0.01 0.01
MSLP
1016.71 1016.95 1017.16 1017.35 1017.52 1017.68 1017.82 1017.93 1018.00 1018.02 1018.00 1017.97 1017.96 1018.00 1018.13 1018.37 1018.72 1019.16 1019.65 1020.14 1020.60 1020.99 1021.31 1021.54 1021.72 1021.86 1021.99 1022.13 1022.28 1022.44 1022.60 1022.75 1022.87 1022.98 1023.08 1023.18 1023.30 1023.43 1023.58 1023.75 1023.91 1024.06 1024.19
1016.75 1016.98 1017.17 1017.35 1017.50 1017.65 1017.79 1017.91 1018.01 1018.08 1018.13 1018.16 1018.21 1018.28 1018.42 1018.63 1018.91 1019.27 1019.66 1020.08 1020.48 1020.85 1021.17 1021.45 1021.69 1021.90 1022.09 1022.26 1022.43 1022.58 1022.70 1022.81 1022.90 1022.98 1023.06 1023.16 1023.28 1023.43 1023.59 1023.77 1023.93 1024.08 1024.21
1016.82 1017.02 1017.19 1017.35 1017.50 1017.65 1017.80 1017.95 1018.08 1018.21 1018.31 1018.41 1018.50 1018.60 1018.73 1018.90 1019.11 1019.36 1019.66 1019.97 1020.31 1020.64 1020.96 1021.27 1021.57 1021.84 1022.09 1022.31 1022.50 1022.65 1022.77 1022.85 1022.92 1022.98 1023.06 1023.16 1023.28 1023.44 1023.61 1023.78 1023.94 1024.09 1024.20
1016.91 1017.08 1017.24 1017.38 1017.54 1017.69 1017.86 1018.03 1018.20 1018.37 1018.53 1018.67 1018.80 1018.92 1019.03 1019.15 1019.29 1019.45 1019.63 1019.85 1020.10 1020.38 1020.68 1021.00 1021.33 1021.66 1021.96 1022.23 1022.45 1022.62 1022.74 1022.82 1022.89 1022.96 1023.04 1023.15 1023.29 1023.45 1023.62 1023.79 1023.94 1024.07 1024.17
1017.00 1017.15 1017.29 1017.44 1017.59 1017.76 1017.94 1018.14 1018.34 1018.54 1018.73 1018.91 1019.06 1019.19 1019.29 1019.37 1019.44 1019.51 1019.60 1019.71 1019.87 1020.08 1020.34 1020.64 1020.98 1021.32 1021.66 1021.96 1022.21 1022.41 1022.57 1022.68 1022.78 1022.88 1022.99 1023.13 1023.28 1023.45 1023.63 1023.78 1023.92 1024.02 1024.10
1017.07 1017.19 1017.33 1017.49 1017.66 1017.84 1018.04 1018.25 1018.46 1018.68 1018.89 1019.09 1019.26 1019.39 1019.49 1019.54 1019.56 1019.56 1019.56 1019.58 1019.65 1019.77 1019.96 1020.21 1020.51 1020.84 1021.17 1021.49 1021.77 1022.01 1022.21 1022.38 1022.53 1022.69 1022.85 1023.03 1023.22 1023.41 1023.59 1023.73 1023.85 1023.93 1023.99
1017.07 1017.19 1017.34 1017.52 1017.71 1017.91 1018.12 1018.33 1018.55 1018.77 1018.98 1019.19 1019.36 1019.51 1019.60 1019.64 1019.64 1019.59 1019.53 1019.47 1019.44 1019.47 1019.56 1019.72 1019.95 1020.23 1020.53 1020.84 1021.14 1021.41 1021.67 1021.90 1022.14 1022.37 1022.60 1022.84 1023.07 1023.28 1023.46 1023.60 1023.70 1023.77 1023.82
1017.00 1017.13 1017.30 1017.50 1017.72 1017.94 1018.16 1018.37 1018.58 1018.79 1019.00 1019.20 1019.38 1019.53 1019.64 1019.69 1019.68 1019.61 1019.51 1019.39 1019.28 1019.20 1019.18 1019.23 1019.36 1019.55 1019.79 1020.06 1020.35 1020.66 1020.96 1021.27 1021.58 1021.90 1022.21 1022.52 1022.80 1023.04 1023.23 1023.38 1023.48 1023.54 1023.60
1016.83 1016.98 1017.18 1017.42 1017.66 1017.91 1018.14 1018.35 1018.55 1018.75 1018.94 1019.13 1019.32 1019.48 1019.61 1019.69 1019.69 1019.63 1019.51 1019.34 1019.16 1018.99 1018.86 1018.79 1018.80 1018.88 1019.03 1019.25 1019.51 1019.82 1020.16 1020.53 1020.92 1021.31 1021.70 1022.06 1022.39 1022.66 1022.88 1023.04 1023.16 1023.25 1023.33
1016.59 1016.77 1017.00 1017.27 1017.55 1017.82 1018.06 1018.27 1018.46 1018.63 1018.81 1018.99 1019.18 1019.36 1019.52 1019.63 1019.67 1019.63 1019.52 1019.34 1019.11 1018.87 1018.64 1018.45 1018.34 1018.30 1018.36 1018.50 1018.72 1019.02 1019.37 1019.77 1020.20 1020.65 1021.09 1021.50 1021.86 1022.17 1022.42 1022.61 1022.76 1022.90 1023.04
1016.29 1016.50 1016.77 1017.07 1017.38 1017.66 1017.91 1018.12 1018.29 1018.45 1018.62 1018.79 1018.98 1019.18 1019.37 1019.52 1019.60 1019.61 1019.52 1019.35 1019.10 1018.82 1018.52 1018.25 1018.03 1017.90 1017.86 1017.92 1018.08 1018.34 1018.68 1019.08 1019.53 1019.99 1020.45 1020.89 1021.28 1021.61 1021.89 1022.12 1022.33 1022.53 1022.76
1015.97 1016.20 1016.49 1016.82 1017.15 1017.44 1017.70 1017.90 1018.07 1018.21 1018.35 1018.52 1018.71 1018.92 1019.13 1019.32 1019.46 1019.52 1019.48 1019.34 1019.12 1018.83 1018.50 1018.18 1017.90 1017.69 1017.57 1017.57 1017.67 1017.87 1018.17 1018.55 1018.97 1019.42 1019.87 1020.30 1020.70 1021.05 1021.36 1021.64 1021.92 1022.21 1022.53
1015.66 1015.90 1016.21 1016.54 1016.87 1017.18 1017.43 1017.62 1017.77 1017.90 1018.02 1018.17 1018.36 1018.58 1018.81 1019.04 1019.23 1019.34 1019.36 1019.28 1019.11 1018.85 1018.54 1018.22 1017.92 1017.68 1017.52 1017.46 1017.51 1017.66 1017.90 1018.23 1018.60 1019.01 1019.42 1019.83 1020.21 1020.57 1020.91 1021.24 1021.59 1021.97 1022.39
1015.38 1015.63 1015.93 1016.26 1016.58 1016.87 1017.11 1017.29 1017.42 1017.53 1017.63 1017.76 1017.94 1018.15 1018.39 1018.65 1018.87 1019.05 1019.14 1019.13 1019.03 1018.84 1018.59 1018.32 1018.04 1017.81 1017.64 1017.56 1017.57 1017.68 1017.87 1018.14 1018.45 1018.80 1019.17 1019.53 1019.89 1020.25 1020.61 1021.00 1021.41 1021.88 1022.40
1015.16 1015.40 1015.68 1015.99 1016.29 1016.55 1016.77 1016.93 1017.04 1017.12 1017.21 1017.31 1017.46 1017.66 1017.90 1018.16 1018.41 1018.63 1018.79 1018.86 1018.84 1018.75 1018.59 1018.39 1018.19 1018.00 1017.87 1017.80 1017.80 1017.89 1018.04 1018.26 1018.52 1018.82 1019.13 1019.46 1019.80 1020.16 1020.54 1020.97 1021.44 1021.98 1022.57
1014.99 1015.21 1015.47 1015.75 1016.02 1016.26 1016.45 1016.58 1016.67 1016.73 1016.79 1016.86 1016.98 1017.15 1017.37 1017.62 1017.89 1018.13 1018.33 1018.47 1018.54 1018.54 1018.48 1018.38 1018.27 1018.17 1018.10 1018.07 1018.10 1018.19 1018.34 1018.53 1018.77 1019.04 1019.33 1019.64 1019.97 1020.34 1020.74 1021.19 1021.71 1022.29 1022.93
1014.87 1015.07 1015.31 1015.56 1015.81 1016.02 1016.18 1016.30 1016.37 1016.40 1016.43 1016.48 1016.56 1016.70 1016.88 1017.10 1017.35 1017.59 1017.82 1018.00 1018.13 1018.21 1018.25 1018.25 1018.23 1018.22 1018.24 1018.28 1018.37 1018.51 1018.68 1018.90 1019.15 1019.43 1019.73 1020.05 1020.40 1020.78 1021.21 1021.69 1022.23 1022.83 1023.47
1014.79 1014.98 1015.21 1015.44 1015.67 1015.86 1016.02 1016.12 1016.17 1016.19 1016.20 1016.22 1016.27 1016.36 1016.50 1016.68 1016.88 1017.10 1017.32 1017.51 1017.67 1017.80 1017.90 1017.98 1018.05 1018.13 1018.24 1018.37 1018.54 1018.75 1019.00 1019.29 1019.60 1019.93 1020.28 1020.65 1021.04 1021.46 1021.91 1022.40 1022.95 1023.53 1024.15
1014.73 1014.93 1015.15 1015.39 1015.61 1015.80 1015.96 1016.06 1016.11 1016.13 1016.13 1016.13 1016.15 1016.20 1016.28 1016.41 1016.56 1016.73 1016.90 1017.07 1017.23 1017.37 1017.50 1017.62 1017.76 1017.91 1018.10 1018.32 1018.59 1018.90 1019.26 1019.64 1020.05 1020.48 1020.92 1021.37 1021.83 1022.29 1022.78 1023.28 1023.81 1024.35 1024.92
1014.68 1014.90 1015.14 1015.39 1015.63 1015.84 1016.01 1016.13 1016.19 1016.22 1016.22 1016.21 1016.21 1016.22 1016.26 1016.33 1016.42 1016.53 1016.64 1016.76 1016.87 1016.99 1017.11 1017.25 1017.41 1017.62 1017.87 1018.18 1018.54 1018.97 1019.44 1019.95 1020.48 1021.03 1021.59 1022.14 1022.68 1023.20 1023.72 1024.22 1024.72 1025.21 1025.69
1014.64 1014.90 1015.17 1015.45 1015.72 1015.95 1016.15 1016.29 1016.38 1016.42 1016.44 1016.43 1016.42 1016.41 1016.42 1016.44 1016.48 1016.52 1016.56 1016.61 1016.67 1016.74 1016.83 1016.94 1017.11 1017.34 1017.64 1018.01 1018.46 1018.98 1019.57 1020.21 1020.87 1021.55 1022.23 1022.88 1023.50 1024.08 1024.62 1025.12 1025.58 1026.00 1026.39
1014.63 1014.92 1015.23 1015.54 1015.84 1016.11 1016.33 1016.50 1016.62 1016.69 1016.72 1016.73 1016.73 1016.72 1016.72 1016.71 1016.70 1016.69 1016.68 1016.67 1016.66 1016.67 1016.72 1016.80 1016.95 1017.18 1017.50 1017.91 1018.42 1019.03 1019.71 1020.44 1021.22 1022.01 1022.79 1023.53 1024.22 1024.84 1025.39 1025.88 1026.29 1026.65 1026.95
1014.64 1014.96 1015.31 1015.65 1015.98 1016.27 1016.51 1016.71 1016.85 1016.95 1017.01 1017.05 1017.07 1017.08 1017.08 1017.07 1017.05 1017.01 1016.97 1016.91 1016.86 1016.83 1016.83 1016.88 1017.00 1017.21 1017.53 1017.96 1018.50 1019.15 1019.89 1020.69 1021.54 1022.39 1023.23 1024.03 1024.75 1025.39 1025.95 1026.40 1026.77 1027.06 1027.28
1014.71 1015.06 1015.42 1015.78 1016.11 1016.41 1016.66 1016.87 1017.03 1017.15 1017.24 1017.32 1017.37 1017.42 1017.45 1017.46 1017.46 1017.43 1017.38 1017.32 1017.25 1017.20 1017.17 1017.20 1017.30 1017.49 1017.80 1018.22 1018.76 1019.40 1020.15 1020.96 1021.82 1022.69 1023.54 1024.33 1025.05 1025.68 1026.21 1026.63 1026.95 1027.19 1027.35
1014.85 1015.20 1015.56 1015.91 1016.24 1016.52 1016.76 1016.97 1017.13 1017.27 1017.39 1017.50 1017.60 1017.69 1017.77 1017.83 1017.87 1017.89 1017.87 1017.84 1017.79 1017.74 1017.72 1017.74 1017.83 1018.01 1018.29 1018.67 1019.18 1019.79 1020.49 1021.25 1022.07 1022.88 1023.68 1024.43 1025.10 1025.68 1026.17 1026.55 1026.82 1027.02 1027.14
1015.07 1015.41 1015.75 1016.07 1016.36 1016.62 1016.84 1017.02 1017.18 1017.33 1017.48 1017.62 1017.77 1017.91 1018.05 1018.17 1018.27 1018.35 1018.39 1018.41 1018.40 1018.40 1018.40 1018.44 1018.53 1018.69 1018.94 1019.29 1019.73 1020.26 1020.87 1021.55 1022.26 1022.98 1023.67 1024.33 1024.92 1025.42 1025.84 1026.17 1026.42 1026.58 1026.69
Thickness
5758 5757 5755 5755 5755 5754 5754 5753 5754 5753 5753 5753 5753 5753 5752 5752 5750 5747 5743 5740 5738 5736 5734 5733 5731 5729 5727 5726 5724 5723 5721 5720 5718 5717 5715 5714 5712 5710 5709 5708 5706 5705 5704
5759 5757 5756 5756 5756 5755 5755 5754 5754 5753 5753 5752 5753 5752 5752 5751 5749 5746 5743 5740 5738 5736 5735 5733 5731 5729 5727 5726 5724 5723 5721 5719 5717 5716 5714 5713 5711 5710 5708 5706 5705 5704 5702
5759 5757 5757 5755 5756 5755 5755 5754 5754 5753 5753 5752 5752 5752 5751 5750 5749 5747 5744 5742 5739 5737 5735 5734 5732 5730 5728 5726 5724 5722 5720 5718 5717 5715 5714 5712 5711 5709 5707 5705 5704 5703 5701
5758 5757 5757 5756 5756 5756 5755 5754 5754 5753 5752 5751 5750 5751 5751 5750 5750 5748 5746 5744 5742 5739 5736 5734 5732 5730 5728 5726 5724 5722 5720 5718 5717 5715 5713 5711 5710 5708 5706 5705 5703 5702 5700
5758 5757 5757 5757 5757 5756 5755 5755 5753 5752 5750 5750 5751 5750 5751 5751 5750 5750 5748 5746 5744 5742 5739 5736 5734 5732 5729 5727 5725 5723 5721 5719 5717 5715 5713 5711 5709 5708 5706 5704 5702 5701 5699
5757 5757 5757 5757 5757 5756 5754 5754 5752 5752 5751 5750 5751 5750 5750 5751 5751 5751 5749 5748 5746 5744 5741 5739 5735 5732 5730 5728 5726 5724 5722 5719 5717 5715 5713 5711 5709 5707 5705 5703 5702 5700 5699
5756 5756 5757 5757 5756 5754 5753 5753 5751 5749 5748 5750 5747 5745 5748 5751 5750 5751 5750 5748 5747 5745 5743 5740 5736 5734 5731 5728 5726 5725 5722 5720 5717 5715 5713 5710 5709 5707 5705 5703 5701 5699 5698
5756 5756 5755 5755 5755 5753 5752 5751 5749 5746 5747 5749 5744 5738 5734 5738 5744 5750 5748 5746 5746 5745 5743 5740 5737 5734 5732 5729 5727 5724 5722 5719 5717 5714 5712 5710 5708 5706 5704 5702 5700 5698 5696
5756 5756 5755 5755 5754 5753 5751 5750 5749 5746 5742 5745 5747 5740 5731 5727 5734 5743 5746 5746 5745 5743 5741 5739 5737 5735 5731 5728 5726 5723 5721 5718 5716 5713 5711 5708 5706 5704 5703 5700 5698 5696 5694
5757 5756 5756 5754 5753 5753 5751 5750 5750 5748 5744 5741 5744 5746 5744 5740 5732 5731 5738 5742 5742 5740 5739 5736 5735 5733 5730 5727 5723 5721 5719 5717 5714 5711 5709 5707 5705 5702 5700 5698 5696 5693 5691
5757 5756 5755 5754 5753 5752 5751 5750 5749 5748 5746 5743 5742 5743 5743 5742 5740 5731 5727 5731 5734 5736 5735 5733 5731 5729 5726 5724 5721 5719 5716 5713 5710 5708 5706 5703 5701 5699 5697 5694 5692 5689 5687
5756 5756 5755 5754 5753 5752 5751 5750 5749 5747 5745 5744 5743 5743 5740 5738 5736 5734 5729 5727 5726 5728 5729 5729 5727 5725 5723 5720 5717 5715 5712 5709 5706 5704 5701 5699 5696 5694 5692 5689 5686 5684 5681
5754 5754 5754 5753 5752 5751 5751 5749 5748 5746 5745 5742 5741 5741 5741 5740 5739 5736 5731 5727 5725 5724 5724 5724 5723 5720 5718 5715 5712 5709 5705 5703 5701 5698 5695 5693 5690 5688 5685 5682 5679 5677 5674
5755 5755 5753 5752 5751 5750 5750 5748 5746 5745 5743 5741 5741 5739 5738 5738 5738 5736 5732 5726 5719 5717 5717 5716 5716 5715 5712 5709 5706 5703 5699 5697 5694 5692 5689 5686 5683 5680 5677 5674 5671 5668 5665
5756 5754 5752 5751 5750 5749 5747 5746 5743 5742 5741 5740 5738 5737 5736 5736 5736 5735 5733 5729 5720 5711 5707 5708 5708 5708 5706 5703 5700 5697 5694 5690 5688 5685 5681 5678 5675 5672 5669 5666 5663 5659 5656
5754 5753 5751 5750 5748 5747 5745 5743 5741 5740 5738 5737 5735 5733 5732 5733 5732 5732 5729 5727 5724 5716 5706 5704 5703 5702 5700 5696 5692 5689 5686 5683 5679 5676 5673 5670 5666 5663 5660 5656 5653 5650 5647
5752 5750 5749 5748 5746 5744 5742 5740 5738 5737 5735 5733 5732 5730 5729 5729 5728 5727 5725 5723 5720 5715 5704 5699 5697 5695 5692 5689 5684 5681 5677 5674 5670 5667 5664 5660 5657 5653 5650 5646 5642 5639 5636
5750 5748 5747 5745 5743 5742 5740 5738 5735 5734 5732 5729 5728 5727 5725 5725 5723 5722 5720 5717 5715 5712 5704 5695 5690 5687 5684 5681 5678 5674 5670 5666 5661 5657 5654 5650 5646 5643 5639 5635 5632 5628 5625
5747 5746 5744 5741 5739 5738 5736 5735 5733 5730 5728 5726 5725 5723 5721 5720 5717 5716 5714 5712 5710 5707 5702 5694 5686 5681 5677 5674 5670 5666 5662 5658 5653 5647 5643 5639 5636 5632 5628 5625 5621 5618 5615
5744 5742 5740 5738 5736 5734 5732 5731 5729 5726 5724 5722 5720 5718 5716 5714 5712 5710 5708 5706 5703 5699 5694 5688 5681 5675 5670 5666 5662 5657 5652 5648 5644 5640 5635 5630 5626 5622 5618 5615 5611 5608 5604
5741 5738 5736 5733 5732 5729 5727 5725 5724 5722 5719 5716 5714 5712 5710 5708 5706 5704 5702 5699 5696 5692 5688 5681 5675 5669 5664 5659 5656 5652 5645 5639 5634 5631 5626 5621 5617 5612 5608 5604 5601 5597 5594
5736 5733 5731 5728 5725 5723 5720 5720 5718 5715 5713 5710 5707 5705 5703 5701 5698 5696 5693 5691 5688 5685 5680 5675 5669 5663 5658 5653 5649 5645 5639 5632 5625 5622 5618 5613 5609 5604 5599 5595 5591 5588 5584
5731 5727 5725 5722 5718 5715 5714 5713 5711 5709 5707 5704 5701 5698 5696 5693 5690 5687 5684 5681 5678 5675 5672 5669 5663 5658 5652 5648 5642 5636 5632 5627 5621 5616 5610 5605 5601 5596 5591 5587 5583 5578 5574
5726 5722 5719 5716 5712 5708 5706 5705 5704 5702 5699 5696 5692 5690 5687 5683 5681 5678 5675 5670 5667 5663 5662 5659 5656 5651 5646 5642 5637 5632 5626 5619 5614 5609 5605 5598 5593 5588 5583 5578 5573 5569 5564
5720 5717 5714 5710 5707 5701 5699 5697 5696 5694 5691 5687 5683 5680 5678 5674 5671 5669 5666 5662 5657 5652 5650 5647 5644 5641 5637 5633 5629 5623 5617 5612 5604 5599 5596 5591 5586 5581 5575 5569 5564 5560 5555
5715 5712 5707 5704 5700 5695 5691 5690 5689 5688 5683 5679 5674 5671 5667 5665 5662 5660 5658 5654 5648 5643 5640 5637 5633 5630 5627 5623 5620 5616 5611 5606 5599 5590 5585 5581 5577 5572 5566 5562 5556 5551 5545